[[{"header":{"parameterUnit":"m.s-1","parameterCategory":1,"la1":30.2991,"la2":30.254,"lo1":-89.0895,"lo2":-89.0444,"dy":0.0017,"dx":0.0017,"nx":28,"ny":28,"refTime":"2023-09-08T03:00:00:Z","depth":0,"parameterNumber":2,"parameterNumberName":"U-component_of_WINDS"},"data":[0,0,0,0,0,0,0,0,0,0,0,0,0,0,0,0,0,0,0,0,0,0,0,0,0,0,0,0,0,0,0,0,0,0,0,0,0,0,0,0,0,0,0,0,0,0,0,0,0,0,0,0,0,0,0,0,0,0,0.8156,0.8157,0,0.8233,0.8234,0.8235,0.8262,0.8261,0.8261,0.8261,0.8345,0.8348,0.835,0,0,0,0,0,0,0,0,0,0,0,0,0,0.8036,0.8038,0.8156,0.8157,0.8158,0.8233,0.8234,0.8235,0.8262,0.8261,0.8261,0.8261,0.8344,0.8347,0.835,0,0,0,0,0,0,0,0,0,0,0,0,0,0.8099,0.8039,0.8156,0.818,0.8183,0.8233,0.8234,0.8236,0.8262,0.8261,0.8261,0.8261,0.8343,0.8347,0.8351,0.8384,0,0,0.8362,0.8364,0,0,0,0,0,0,0,0,0.8095,0.8103,0.8175,0.8178,0.8182,0.8237,0.8223,0.8286,0.8262,0.8232,0.8261,0.826,0.831,0.8316,0.8332,0.8388,0.8391,0.8363,0.8365,0.8367,0.8368,0,0,0,0,0,0,0,0.8091,0.81,0.8187,0.8176,0.818,0.8189,0.8197,0.8235,0.8273,0.8235,0.8237,0.8245,0.8312,0.8328,0.8334,0.8393,0.8363,0.8366,0.8368,0.837,0.8482,0.8483,0,0,0,0,0,0,0.8081,0.8096,0.8184,0.8189,0.8136,0.8191,0.8201,0.822,0.8273,0.828,0.8246,0.8246,0.8322,0.833,0.8337,0.8381,0.8367,0.837,0.8372,0.8481,0.8482,0.8483,0,0,0,0,0,0,0.8079,0.8089,0.8181,0.8143,0.8155,0.8194,0.8216,0.8222,0.8239,0.8281,0.8288,0.8255,0.8322,0.8332,0.8372,0.8384,0.8372,0.8375,0.8481,0.8482,0.8483,0.8468,0,0,0,0,0,0,0.8075,0.8088,0.8099,0.8143,0.8157,0.8213,0.8216,0.8224,0.8245,0.8246,0.8292,0.8299,0.8323,0.8367,0.8376,0.8389,0.8378,0.848,0.8481,0.8482,0.8467,0.8468,0.8469,0,0,0,0,0,0.8071,0.8093,0.81,0.811,0.8172,0.8213,0.8222,0.8247,0.8245,0.8258,0.8286,0.8298,0.8381,0.837,0.8381,0.8396,0.8479,0.8481,0.8482,0.8467,0.8468,0.8469,0,0,0,0,0,0,0.8051,0.8099,0.8107,0.8143,0.8174,0.8218,0.8234,0.8247,0.8279,0.828,0.8311,0.8321,0.8359,0.8382,0.8369,0.8432,0.8431,0.8435,0.8416,0.8417,0.8418,0.8412,0.8382,0,0,0,0,0,0.805,0.8078,0.8119,0.8147,0.8162,0.8196,0.8214,0.8231,0.8265,0.8278,0.8308,0.8342,0.8376,0.8398,0.8431,0.8471,0.8483,0.8487,0.8487,0.8488,0.8491,0.8516,0.8519,0.8488,0.8488,0.8488,0,0,0.805,0.808,0.8095,0.8144,0.8169,0.8199,0.8206,0.8237,0.826,0.8283,0.8323,0.8347,0.8386,0.8427,0.8446,0.8447,0.8502,0.849,0.849,0.8493,0.8518,0.852,0.8523,0.8489,0.8489,0.8489,0,0,0.8065,0.8089,0.8116,0.8141,0.818,0.8202,0.8209,0.8251,0.8267,0.8307,0.8326,0.8355,0.8412,0.844,0.8462,0.849,0.8503,0.85,0.8504,0.8528,0.853,0.8532,0.8544,0.8547,0.8503,0.8503,0.8503,0,0.806,0.8104,0.8129,0.8159,0.8181,0.8202,0.8231,0.8255,0.8303,0.8318,0.8318,0.8392,0.842,0.8468,0.8475,0.8491,0.8501,0.8495,0.8527,0.853,0.8533,0.8544,0.8548,0.8502,0.8502,0.8502,0.8502,0,0.8097,0.8127,0.8145,0.8189,0.8213,0.8242,0.8274,0.8295,0.8311,0.8334,0.8376,0.841,0.8452,0.8465,0.848,0.8516,0.8515,0.8521,0.8521,0.8534,0.8546,0.855,0.8501,0.8502,0.8502,0.8502,0,0,0.81,0.8159,0.8165,0.8186,0.8231,0.8256,0.8288,0.8327,0.8346,0.8379,0.8407,0.8456,0.8462,0.8487,0.8506,0.8526,0.8548,0.853,0.8531,0.8533,0.8592,0.8588,0.8592,0.8557,0.8558,0.8558,0.8589,0,0.8121,0.8176,0.8201,0.8246,0.8276,0.8297,0.8325,0.8357,0.838,0.841,0.8436,0.8471,0.8475,0.849,0.8512,0.8541,0.856,0.8539,0.8586,0.8587,0.8575,0.8598,0.8594,0.862,0.8593,0.8594,0.8595,0,0.8153,0.8185,0.8233,0.8276,0.8289,0.8313,0.8353,0.8381,0.8418,0.8434,0.8462,0.848,0.8517,0.8514,0.8565,0.855,0.8571,0.8589,0.859,0.8596,0.8592,0.8605,0.863,0.8634,0.8601,0.8601,0.86,0,0.8152,0.8208,0.8244,0.8261,0.8312,0.8329,0.8351,0.8387,0.841,0.8445,0.8461,0.85,0.8522,0.8553,0.8583,0.8578,0.8633,0.8632,0.8648,0.8648,0.8659,0.8658,0.8688,0.8671,0.8671,0.8671,0.8671,0,0.8174,0.8203,0.8244,0.8266,0.83,0.8329,0.8362,0.8386,0.8419,0.8448,0.8469,0.8497,0.8533,0.8566,0.859,0.863,0.864,0.8655,0.8661,0.8653,0.8651,0.8668,0.8667,0.8672,0.8672,0.8672,0.8671,0,0.8179,0.8207,0.8248,0.8293,0.8305,0.8328,0.8367,0.8391,0.8415,0.8452,0.8462,0.8501,0.8541,0.8573,0.8625,0.8641,0.8684,0.869,0.8671,0.8674,0.869,0.8688,0.8731,0.8739,0.8716,0.8716,0.8716,0,0.8191,0.8213,0.826,0.828,0.8302,0.8334,0.8358,0.8388,0.8412,0.8457,0.8476,0.8517,0.8551,0.8614,0.8648,0.8689,0.8697,0.871,0.8704,0.8696,0.8699,0.8698,0.8701,0.8711,0.8711,0.8711,0.8711,0,0.821,0.8223,0.8255,0.8293,0.832,0.8351,0.8383,0.8399,0.8436,0.8462,0.8502,0.8529,0.8582,0.8623,0.8668,0.8693,0.8709,0.8712,0.8719,0.8712,0.87,0.8708,0.8674,0.8711,0.8711,0.8711,0.8711,0.8711,0.8219,0.8241,0.8277,0.8313,0.834,0.837,0.8395,0.8423,0.8456,0.8501,0.8517,0.8559,0.8598,0.866,0.8685,0.872,0.8722,0.873,0.8733,0.8735,0.8734,0.8693,0.8728,0.8728,0.8728,0.8728,0.8728,0,0.824,0.8265,0.8297,0.8341,0.837,0.8381,0.8418,0.8442,0.8477,0.8512,0.8545,0.8593,0.8633,0.8671,0.8714,0.8735,0.8744,0.8745,0.8745,0.8751,0.873,0.872,0.8738,0.8738,0.8738,0.8738,0.8738,0.8738,0.8255,0.8292,0.831,0.8363,0.8388,0.8428,0.8448,0.8477,0.8505,0.8556,0.8589,0.8613,0.865,0.8696,0.8735,0.8745,0.8761,0.8761,0.8773,0.8753,0.8752,0.8751,0.8742,0.8764,0.8764,0.8792,0.8792,0.8792]},{"header":{"parameterUnit":"m.s-1","parameterCategory":1,"la1":30.2991,"la2":30.254,"lo1":-89.0895,"lo2":-89.0444,"dy":0.0017,"dx":0.0017,"nx":28,"ny":28,"refTime":"2023-09-08T03:00:00:Z","depth":0,"parameterNumber":3,"parameterNumberName":"V-component_of_WINDS"},"data":[0,0,0,0,0,0,0,0,0,0,0,0,0,0,0,0,0,0,0,0,0,0,0,0,0,0,0,0,0,0,0,0,0,0,0,0,0,0,0,0,0,0,0,0,0,0,0,0,0,0,0,0,0,0,0,0,0,0,-0.9263,-0.9263,0,-0.93,-0.9301,-0.9301,-0.9417,-0.942,-0.9422,-0.9425,-0.9461,-0.946,-0.9458,0,0,0,0,0,0,0,0,0,0,0,0,0,-0.9293,-0.9292,-0.9263,-0.9263,-0.9264,-0.93,-0.9301,-0.9301,-0.9417,-0.942,-0.9423,-0.9426,-0.9461,-0.946,-0.9458,0,0,0,0,0,0,0,0,0,0,0,0,0,-0.93,-0.9292,-0.9263,-0.9326,-0.9332,-0.93,-0.9301,-0.9301,-0.9416,-0.942,-0.9424,-0.9427,-0.9462,-0.946,-0.9458,-0.9367,0,0,-0.9451,-0.945,0,0,0,0,0,0,0,0,-0.93,-0.9299,-0.9316,-0.9321,-0.9328,-0.9358,-0.9325,-0.9323,-0.9415,-0.9384,-0.9425,-0.9429,-0.9424,-0.9425,-0.9423,-0.9369,-0.937,-0.9451,-0.945,-0.9449,-0.9448,0,0,0,0,0,0,0,-0.9299,-0.9298,-0.9278,-0.9316,-0.9324,-0.9353,-0.9358,-0.9325,-0.9382,-0.9387,-0.9396,-0.9399,-0.9428,-0.9425,-0.9425,-0.9371,-0.9451,-0.9449,-0.9448,-0.9447,-0.925,-0.9246,0,0,0,0,0,0,-0.9289,-0.9297,-0.9276,-0.9279,-0.9323,-0.9349,-0.9355,-0.9344,-0.9382,-0.9392,-0.9395,-0.9404,-0.9427,-0.9427,-0.9427,-0.9326,-0.9449,-0.9447,-0.9446,-0.9254,-0.9249,-0.9245,0,0,0,0,0,0,-0.929,-0.9287,-0.9275,-0.929,-0.9291,-0.9345,-0.9332,-0.9343,-0.9341,-0.9389,-0.9399,-0.9382,-0.943,-0.943,-0.9382,-0.9329,-0.9446,-0.9444,-0.9258,-0.9252,-0.9247,-0.9122,0,0,0,0,0,0,-0.929,-0.9286,-0.9251,-0.9289,-0.929,-0.9229,-0.9328,-0.9341,-0.9337,-0.9349,-0.9379,-0.9388,-0.9433,-0.9385,-0.938,-0.9328,-0.9442,-0.9263,-0.9256,-0.9249,-0.9131,-0.9112,-0.9096,0,0,0,0,0,-0.9291,-0.9213,-0.9249,-0.9246,-0.9247,-0.9225,-0.9226,-0.928,-0.9332,-0.9298,-0.933,-0.9387,-0.9336,-0.9379,-0.9375,-0.9321,-0.9267,-0.9258,-0.9249,-0.9139,-0.9116,-0.9097,0,0,0,0,0,0,-0.9165,-0.9219,-0.9259,-0.9191,-0.9203,-0.9245,-0.9204,-0.9254,-0.9251,-0.9261,-0.9329,-0.9335,-0.9278,-0.9295,-0.9343,-0.9238,-0.9311,-0.9301,-0.9228,-0.9207,-0.919,-0.9187,-0.944,0,0,0,0,0,-0.913,-0.9108,-0.9156,-0.9091,-0.9096,-0.9149,-0.9141,-0.9182,-0.9197,-0.9202,-0.923,-0.9242,-0.923,-0.922,-0.921,-0.9135,-0.9145,-0.9096,-0.9079,-0.9064,-0.9054,-0.902,-0.8999,-0.9215,-0.9215,-0.9216,0,0,-0.9056,-0.9083,-0.9064,-0.9067,-0.9081,-0.9058,-0.9152,-0.9122,-0.9106,-0.9198,-0.9156,-0.9177,-0.9195,-0.9134,-0.9109,-0.9147,-0.8998,-0.9053,-0.9041,-0.9039,-0.9008,-0.8988,-0.897,-0.9209,-0.921,-0.9211,0,0,-0.8911,-0.8927,-0.8877,-0.8891,-0.8913,-0.8949,-0.8937,-0.8973,-0.8991,-0.895,-0.902,-0.9003,-0.8978,-0.899,-0.8992,-0.8857,-0.891,-0.8852,-0.8761,-0.8726,-0.8709,-0.8694,-0.8648,-0.863,-0.8842,-0.8842,-0.8841,0,-0.8816,-0.8783,-0.8845,-0.8812,-0.8812,-0.8898,-0.8849,-0.8858,-0.8875,-0.8874,-0.8916,-0.8891,-0.8909,-0.8854,-0.8821,-0.882,-0.881,-0.8848,-0.8707,-0.8693,-0.868,-0.8636,-0.8618,-0.8835,-0.8835,-0.8836,-0.8837,0,-0.8667,-0.8644,-0.8601,-0.8617,-0.8613,-0.8571,-0.8629,-0.8617,-0.866,-0.8693,-0.8652,-0.8678,-0.8677,-0.8668,-0.8708,-0.8619,-0.8642,-0.8695,-0.8769,-0.8651,-0.8612,-0.8595,-0.8824,-0.8827,-0.8829,-0.8831,0,0,-0.8439,-0.8494,-0.8477,-0.8488,-0.8521,-0.8504,-0.8468,-0.847,-0.8459,-0.8469,-0.8442,-0.8423,-0.8473,-0.8476,-0.8519,-0.8488,-0.8383,-0.8546,-0.8547,-0.8515,-0.829,-0.8251,-0.823,-0.8419,-0.8416,-0.8414,-0.8289,0,-0.8302,-0.8244,-0.8301,-0.8232,-0.8213,-0.8297,-0.8267,-0.8284,-0.8315,-0.8304,-0.8338,-0.8324,-0.839,-0.8393,-0.8367,-0.8401,-0.8339,-0.8411,-0.8396,-0.8394,-0.8388,-0.8209,-0.8166,-0.8047,-0.8274,-0.8271,-0.8269,0,-0.8133,-0.8138,-0.8067,-0.8109,-0.8104,-0.8075,-0.8083,-0.8071,-0.8094,-0.8119,-0.8125,-0.8179,-0.8149,-0.8223,-0.8184,-0.8232,-0.823,-0.8246,-0.8243,-0.8243,-0.8324,-0.8205,-0.801,-0.7992,-0.8245,-0.8247,-0.8249,0,-0.7975,-0.7965,-0.7923,-0.7929,-0.7976,-0.7954,-0.7973,-0.8,-0.7998,-0.8006,-0.8006,-0.8009,-0.801,-0.8012,-0.8067,-0.8115,-0.8022,-0.8099,-0.8043,-0.8041,-0.8018,-0.8019,-0.782,-0.8016,-0.8016,-0.8016,-0.8017,0,-0.7816,-0.777,-0.7853,-0.7827,-0.778,-0.7847,-0.7798,-0.7826,-0.785,-0.7832,-0.7904,-0.7886,-0.7959,-0.7948,-0.7991,-0.7954,-0.7953,-0.7974,-0.7986,-0.7967,-0.7965,-0.7966,-0.7976,-0.8012,-0.8013,-0.8014,-0.8014,0,-0.7631,-0.7685,-0.7645,-0.7694,-0.7706,-0.7669,-0.7712,-0.7691,-0.7728,-0.7705,-0.7703,-0.7762,-0.7754,-0.7809,-0.7811,-0.784,-0.7783,-0.7809,-0.7775,-0.7784,-0.7724,-0.773,-0.752,-0.7497,-0.7706,-0.7704,-0.7702,0,-0.7525,-0.7493,-0.754,-0.7534,-0.755,-0.7538,-0.7539,-0.7605,-0.7603,-0.763,-0.7605,-0.7605,-0.7607,-0.7591,-0.7635,-0.7638,-0.7665,-0.7591,-0.7665,-0.765,-0.7665,-0.7667,-0.7665,-0.7575,-0.7573,-0.757,-0.7569,0,-0.7333,-0.7363,-0.7361,-0.7369,-0.7367,-0.7376,-0.739,-0.7381,-0.7455,-0.7448,-0.7442,-0.7445,-0.7449,-0.7448,-0.746,-0.7481,-0.7537,-0.7546,-0.7533,-0.7514,-0.7496,-0.7507,-0.7734,-0.755,-0.7551,-0.7553,-0.7554,-0.7555,-0.7186,-0.7162,-0.7193,-0.719,-0.7208,-0.7221,-0.7205,-0.7242,-0.7239,-0.7248,-0.7289,-0.7276,-0.7305,-0.7328,-0.7344,-0.7337,-0.7372,-0.7353,-0.7348,-0.7343,-0.7333,-0.7498,-0.7339,-0.734,-0.734,-0.7341,-0.7341,0,-0.6999,-0.7024,-0.702,-0.7039,-0.7037,-0.7093,-0.7113,-0.7107,-0.7096,-0.7118,-0.7121,-0.7117,-0.7117,-0.7162,-0.7169,-0.7155,-0.7181,-0.7154,-0.7156,-0.716,-0.73,-0.7311,-0.7133,-0.7133,-0.7133,-0.7133,-0.7133,-0.7133,-0.6901,-0.6865,-0.6899,-0.6875,-0.6901,-0.6891,-0.6898,-0.6911,-0.693,-0.6922,-0.6924,-0.6954,-0.6986,-0.6997,-0.7001,-0.7015,-0.7014,-0.6979,-0.7001,-0.713,-0.715,-0.7169,-0.718,-0.6978,-0.6977,-0.6863,-0.6861,-0.6861]}]]